Regional Weather Roundup
Issued by NWS Mt. Holly, NJ

Home | Current Version | Previous Version | Text Only | Print | Product List | Glossary On
Versions: 1 2 3 4 5 6 7 8 9 10 11 12 13 14 15 16 17 18 19 20 21 22 23 24 25 26 27 28 29 30 31 32 33 34 35 36 37 38 39 40 41 42 43 44 45 46 47 48 49 50
000
ASUS41 KPHI 090612
RWRPHI

REGIONAL WEATHER ROUNDUP
NATIONAL WEATHER SERVICE MOUNT HOLLY NJ
100 AM EST TUE FEB 09 2016

NOTE:  "FAIR" INDICATES FEW OR NO CLOUDS BELOW 12,000 FEET WITH NO
SIGNIFICANT WEATHER AND/OR OBSTRUCTIONS TO VISIBILITY.

 * = STATION DOES NOT REPORT PRECIPITATION (E.G. RAIN, SNOW, ETC.)
        OR FOG.

NJZ015>026-090700-
SOUTHERN NEW JERSEY

CITY           SKY/WX    TMP DP  RH WIND       PRES   REMARKS
POMONA         LGT SNOW  33  31  92 NE7       29.69F FOG     WCI  27
6HR MIN TEMP:  33; 6HR MAX TEMP:  34; 6HR PCP:  0.03;

WILDWOOD*      CLOUDY    36  30  80 E6        29.68F WCI  31
MILLVILLE      CLOUDY    33  31  92 NE7       29.68F WCI  27
WRIGHTSTOWN    CLOUDY    30  30 100 NE5       29.70S WCI  25
MOUNT HOLLY    CLOUDY    30  28  92 NE5       29.72F WCI  25
TRENTON        LGT SNOW  29  26  89 E7        29.72S FOG     WCI  22
6HR MIN TEMP:  29; 6HR MAX TEMP:  35; 6HR PCP: TRACE;


$$
NJZ001>014-090700-
NORTHERN NEW JERSEY

CITY           SKY/WX    TMP DP  RH WIND       PRES   REMARKS
SUSSEX         LGT SNOW  26  22  84 NE5       29.70F FOG     WCI  20
ANDOVER*         N/A     28  23  81 CALM      29.70F
MORRISTOWN     FLURRIES  28  23  80 E5        29.73F WCI  23
NEWARK         FLURRIES  30  24  78 E7        29.74F WCI  23
TETERBORO      CLOUDY    28  21  74 NE6       29.74F WCI  22
CALDWELL       CLOUDY    28  22  78 E7        29.74F WCI  21
SOMERVILLE     LGT SNOW  29  25  85 CALM      29.72F FOG
ALLAIRE*       CLOUDY    30  21  69 E7        29.72S WCI  23
TOMS RIVER*    CLOUDY    30  28  93 NE3       29.72F

$$
PAZ043-044-047-054-055-060>062-066>071-090700-
EASTERN PENNSYLVANIA

CITY           SKY/WX    TMP DP  RH WIND       PRES   REMARKS
PHILADELPHIA   CLOUDY    32  28  85 E9        29.71F WCI  24
6HR MIN TEMP:  32; 6HR MAX TEMP:  38; 6HR PCP:  0.01;

NORTH PHILA    CLOUDY    32  28  85 E7        29.73F FOG     WCI  26
BLUE BELL*       N/A     30  28  93 CALM      29.70S
DOYLESTOWN     CLOUDY    28  27  96 CALM      29.70F
QUAKERTOWN*    CLOUDY    30  28  93 E5        29.70S WCI  25
POTTSTOWN      LGT SNOW  30  28  92 E3        29.70F FOG
LANCASTER      LGT SNOW  31  30  96 SE14      29.65F FOG     WCI  21
COATESVILLE    LGT SNOW  30  30 100 E9G18     29.66F WCI  22
READING        CLOUDY    32  27  81 E6        29.67F WCI  26
6HR MIN TEMP:  32; 6HR MAX TEMP:  39; 6HR PCP:  0.01;

ALLENTOWN      LGT SNOW  30  26  85 E8        29.70S FOG     WCI  22
6HR MIN TEMP:  30; 6HR MAX TEMP:  38; 6HR PCP:  0.03;

MOUNT POCONO   LGT SNOW  23  20  88 SE7       29.60S FOG     WCI  15
6HR MIN TEMP:  23; 6HR MAX TEMP:  29; 6HR PCP: TRACE;

HAZLETON       MIX PCPN  28  27  93 SE5       29.62F WCI  23
LEHIGHTON      LGT SNOW  30  28  93 CALM      29.69F
WILKES BARRE   LGT SNOW  28  23  81 CALM      29.64F

$$
DEZALL-MDZ008-012-015-019-020-090700-
DELAWARE AND EASTERN MARYLAND

CITY           SKY/WX    TMP DP  RH WIND       PRES   REMARKS
WILMINGTON     LGT SNOW  32  30  92 E10       29.69F FOG     WCI  24
6HR MIN TEMP:  32; 6HR MAX TEMP:  40; 6HR PCP:  0.14;

DOVER          CLOUDY    36  36 100 E10       29.65F WCI  28
GEORGETOWN     CLOUDY    37  35  92 E5        29.66F WCI  33
6HR MIN TEMP:  35; 6HR MAX TEMP:  37; 6HR PCP:  0.05;

EASTON         CLOUDY    37  37 100 SE6       29.69F WCI  32
PATUXENT       CLOUDY    38  34  85 E8        29.63F WCI  32
OCEAN CITY     MOCLDY    40  35  83 E8        29.66F WCI  34
WALLOPS ISLAND CLOUDY    40  36  86 E8        29.64F WCI  34
CAMBRIDGE      CLOUDY    34  34 100 E6        29.64F WCI  29
SALISBURY      CLOUDY    36  35  96 E6        29.65F WCI  31

$$
PAZ001-021-NYZ056-072-MDZ011-DCZ001-090700-
OTHER NEARBY LOCATIONS

CITY           SKY/WX    TMP DP  RH WIND       PRES   REMARKS
HARRISBURG     LGT SNOW  33  31  92 SE7       29.64F WCI  27
STATE COLLEGE  CLOUDY    34  30  85 CALM      29.57F
WILLIAMSPORT   LGT SNOW  34  30  85 NE10      29.62F FOG     WCI  26
BINGHAMTON     LGT SNOW  25  23  92 SE10      29.58F FOG     WCI  15
NEW YORK CITY  CLOUDY    28  21  75 E9        29.75F WCI  19
BALTIMORE      LGT RAIN  36  34  92 E8        29.64F WCI  30
WASHINGTON DC  LGT RAIN  38  34  85 SE7       29.64F WCI  33

$$



USA.gov is the U.S. government's official web portal to all federal, state and local government web resources and services.